Main page


Airports :

Zabol, Iran

Zabol Airport

latitude: 31-20N, longitude: 061-29E, elevation: 489 m

Current weather observation

The report was made 1 hour and 17 minutes ago, at 05:00 UTC
Wind 8 kt from the Northwest
Temperature 17°C
Humidity 52%
Pressure 1018 hPa
Visibility 10 km or more
no clouds below 1500 m and no cumulonimbus

METAR: OIZB 200500Z 31008KT CAVOK 17/07 Q1018

Time: 09:47 (06:17 UTC)

TAF: missing

Weather observations and forecasts of more than 4000 airports (METAR and TAF reports).

The available stations are represented by yellow and red dots on the map.

Hover mouse over dot to see the name of the station.

Then click to see weather observations and forecasts.

To change the map : click on the green buttons with a black cross to zoom in, on the green button with a dash to zoom out, or on the green arrows for adjacent maps.